Location: Gollag?dem
(16.8053°N, 80.8024°E)
Time: 13:53:10
(UTC+00:00)

ATLAS 5 CENTAUR R/B - Pass Details

Date: 13 August 2020
Orbit: 533 x 1125 km, 63.4° (Epoch: 19 September)

Event Time Altitude Azimuth Distance (km) Brightness Sun altitude
Rises 14:10:58 0° 348° (NNW) 3,564 5.9 -16.3°
Reaches altitude 10° 14:13:34 10° 356° (N) 2,704 5.1 -16.9°
Maximum altitude 14:19:35 40° 64° (ENE) 1,510 3.2 -18.2°
Enters shadow 14:22:12 29° 107° (ESE) 1,846 3.4 -18.8°
